Miscellaneous Local Product
Issued by NWS North Platte, NE

Home | Current Version | Previous Version | Text Only | Print | Product List | Glossary On
Versions: 1 2 3 4 5 6 7 8 9 10 11 12 13 14 15 16 17 18 19 20 21 22 23 24 25 26 27 28 29 30 31 32 33 34 35 36 37 38 39 40 41 42 43 44 45 46 47 48 49 50
688
AXUS43 KLBF 300110
MISLBF


WESTERN AND NORTH CENTRAL NEBRASKA HOURLY WEATHER ROUNDUP
NATIONAL WEATHER SERVICE NORTH PLATTE NE
800 PM CDT FRI JUL 29 2016

NOTE: "FAIR" INDICATES FEW OR NO CLOUDS BELOW 12,000 FEET WITH NO
SIGNIFICANT WEATHER AND/OR OBSTRUCTIONS TO VISIBILITY.

NOTE: STATIONS NOT REPORTING VARIABLES SUCH AS SKY/WEATHER OR
PRESSURE ARE PROVIDED BY RAWS AND APRS NETWORKS AND ARE NOT UNDER
NATIONAL WEATHER SERVICE QUALITY CONTROL.

...OBSERVATIONS IN AND NEAR THE EASTERN PANHANDLE OF NEBRASKA...

CITY           SKY/WX    TMP DP  RH WIND       PRES   REMARKS
PINE RIDGE     CLOUDY    77  61  57 S10       30.01F
CHADRON        LGT RAIN  71  62  73 E8        30.04R
ALLIANCE       CLOUDY    72  61  68 S8        30.05F
SIDNEY         CLOUDY    74  58  57 NE10G18   30.11F THUNDER
CRESCENT LAKE    N/A     72  60  65 SE7         N/A
$$

...OBSERVATIONS IN NORTHERN NEBRASKA AND FAR SOUTHERN SOUTH DAKOTA...

CITY           SKY/WX    TMP DP  RH WIND       PRES   REMARKS
WINNER         FAIR      77  59  53 SE8       30.02S
VALENTINE      MOSUNNY   76  60  57 SE9       30.03S
THEDFORD       CLOUDY    77  60  55 SE8       30.05F
AINSWORTH      PTCLDY    72  63  72 SE7       30.04F
O`NEILL        CLOUDY    76  55  47 CALM      30.05R
ORD            PTCLDY    76  59  55 CALM      30.02S
BROKEN BOW     CLOUDY    73  65  75 E6        30.05R
VALENTINE NWR    N/A     76  60  57 SE6         N/A
BUTTE            N/A     75  61  62 E3          N/A
HALSEY           N/A     75  62  64 MISG        N/A
EWING            N/A     73  65  75 CALM        N/A
$$

...OBSERVATIONS IN SOUTHWEST NEBRASKA AND FAR NORTHEAST COLORADO...

CITY           SKY/WX    TMP DP  RH WIND       PRES   REMARKS
HOLYOKE        FAIR      77  63  61 S6        30.10R
IMPERIAL       MOSUNNY   78  63  59 SE6       30.06S
OGALLALA       CLOUDY    75  63  66 CALM      30.06S
NORTH PLATTE   CLOUDY    76  67  73 SE6       30.05R
MCCOOK         CLOUDY    82  61  48 NE5       30.03R
LEXINGTON      CLOUDY    75  66  73 E6        30.04R
STAPLETON        N/A     76  62  62 CALM        N/A
GOTHENBURG       N/A     77  63  61 E3          N/A
CALLAWAY         N/A     78  67  69 SE3         N/A
$$

...OBSERVATIONS IN CENTRAL LINCOLN COUNTY AREA...

CITY           SKY/WX    TMP DP  RH WIND       PRES   REMARKS
N.P. AIRPORT   CLOUDY    76  67  73 SE6       30.05R
N.P. DOWNTOWN    N/A     78  66  66 CALM        N/A
N.P. HILLCREST   N/A     76  65  68 SE6         N/A
$$

...SOME OBSERVATIONS FROM AROUND THE REGION...

CITY           SKY/WX    TMP DP  RH WIND       PRES   REMARKS
DENVER         CLOUDY    82  57  42 SE26G33   30.06S
LARAMIE        CLOUDY    70  49  47 SE22G31   30.19R
CHEYENNE       CLOUDY    71  55  56 S8        30.17R
SCOTTSBLUFF    TSTM      64  32  30 VRB5      30.13R
RAPID CITY     SUNNY     76  55  48 VRB3      30.01F
BISMARCK       MOSUNNY   77  62  59 S12       29.97F
PIERRE         MOSUNNY   80  55  42 SE10      29.97S
SIOUX FALLS    PTCLDY    74  55  51 E10       30.03S
OMAHA          PTCLDY    77  62  59 NE9       30.00R
GRAND ISLAND   CLEAR     75  63  66 E5        30.03F
KANSAS CITY    CLEAR     77  63  61 N6        29.98R
WICHITA        PTCLDY    85  68  56 E7        29.96S
OKLAHOMA CITY  PTCLDY    83  66  56 NE9       29.95F
DALLAS         PTCLDY    92  65  40 S7        29.89S HX  94
AMARILLO       CLEAR     86  60  41 SE15      30.04R
DODGE CITY     MOCLDY    80  67  64 NE8       30.02R
HAYS           CLEAR     84  61  45 E7        30.00R
GOODLAND       SUNNY     75  64  68 SE9       30.08S
$$




USA.gov is the U.S. government's official web portal to all federal, state and local government web resources and services.